Weather History for Keahole Point, HI

Change the Weather History Date:

Friday, December 21, 2012

  Actual Average Record
Temperature  
Mean Temperature 76 °F -  
Max Temperature 82 °F 79 °F 88 °F (1988)
Min Temperature 70 °F 68 °F 62 °F (1982)
Cooling Degree Days 11    
Growing Degree Days 26 (Base 50)    
Moisture  
Dew Point 61 °F    
Average Humidity 62    
Maximum Humidity 68    
Minimum Humidity 52    
Precipitation  
Precipitation 0.00 in - - ()
Sea Level Pressure  
Sea Level Pressure 29.97 in    
Wind  
Wind Speed 6 mph (ESE)    
Max Wind Speed 10 mph    
Max Gust Speed -    
Visibility 10 miles    
Events      
Averages and records for this station are not official NWS values.
T = Trace of Precipitation, MM = Missing Value Source: NWS Daily Summary

Daily Weather History Graph

Daily Weather History Graph

Search for Another Location

Airport:

Trip Planner

Search our weather history database for the weather conditions in past years. The results will help you decide how hot, cold, wet, or windy it might be!

Date:

Astronomy

Dec. 21, 2012 Rise Set
Actual Time 6:54 AM HST 5:50 PM HST
Civil Twilight 6:30 AM HST 6:14 PM HST
Nautical Twilight 6:03 AM HST 6:42 PM HST
Astronomical Twilight 5:35 AM HST 7:09 PM HST
Moon 1:16 PM HST (12/21) 1:22 AM HST (12/21)
Length of Visible Light 11h 44m
Length of Day
10h 56m
Waxing Gibbous, 66% of the Moon is Illuminated
Dec 21
Waxing Gibbous
Dec 28
Full
Jan 4
Last Quarter
Jan 11
New
Jan 18
First Quarter

Hourly Weather History & Observations

Time (HST) Temp. Heat Index Dew Point Humidity Pressure Visibility Wind Dir Wind Speed Gust Speed Precip Events Conditions
12:53 AM 73.0 °F - 60.1 °F 64% 29.98 in 10.0 mi ESE 5.8 mph - N/A   Clear
1:53 AM 72.0 °F - 60.1 °F 66% 29.96 in 10.0 mi NE 6.9 mph - N/A   Mostly Cloudy
2:53 AM 72.0 °F - 60.1 °F 66% 29.95 in 10.0 mi East 5.8 mph - N/A   Clear
3:53 AM 72.0 °F - 61.0 °F 68% 29.94 in 10.0 mi East 4.6 mph - N/A   Partly Cloudy
4:53 AM 71.1 °F - 60.1 °F 68% 29.94 in 10.0 mi NNE 6.9 mph - N/A   Clear
5:53 AM 70.0 °F - 57.9 °F 65% 29.95 in 10.0 mi NNE 5.8 mph - N/A   Clear
6:53 AM 71.1 °F - 60.1 °F 68% 29.97 in 10.0 mi ENE 4.6 mph - N/A   Mostly Cloudy
7:53 AM 73.0 °F - 61.0 °F 66% 29.98 in 10.0 mi NE 3.5 mph - N/A   Partly Cloudy
8:53 AM 77.0 °F - 57.9 °F 52% 30.00 in 10.0 mi North 8.1 mph - N/A   Clear
9:53 AM 78.1 °F - 60.1 °F 54% 30.01 in 10.0 mi North 4.6 mph - N/A   Mostly Cloudy
10:53 AM 79.0 °F - 62.1 °F 56% 30.00 in 10.0 mi ESE 3.5 mph - N/A   Overcast
11:53 AM 79.0 °F - 63.0 °F 58% 29.97 in 10.0 mi West 3.5 mph - N/A   Overcast
12:53 PM 80.1 °F 81.5 °F 63.0 °F 56% 29.94 in 10.0 mi South 9.2 mph - N/A   Mostly Cloudy
1:53 PM 82.0 °F 83.4 °F 64.0 °F 54% 29.92 in 10.0 mi South 10.4 mph - N/A   Scattered Clouds
2:53 PM 80.1 °F 81.5 °F 63.0 °F 56% 29.92 in 10.0 mi South 8.1 mph - N/A   Mostly Cloudy
3:53 PM 80.1 °F 81.7 °F 64.0 °F 58% 29.92 in 10.0 mi SW 6.9 mph - N/A   Partly Cloudy
4:53 PM 79.0 °F - 64.0 °F 60% 29.93 in 10.0 mi South 8.1 mph - N/A   Overcast
5:53 PM 77.0 °F - 64.0 °F 64% 29.95 in 10.0 mi South 6.9 mph - N/A   Scattered Clouds
6:53 PM 77.0 °F - 64.9 °F 66% 29.98 in 10.0 mi SSW 4.6 mph - N/A   Clear
7:53 PM 75.9 °F - 64.0 °F 67% 30.00 in 10.0 mi SSW 4.6 mph - N/A   Clear
8:53 PM 73.9 °F - 62.1 °F 66% 30.01 in 10.0 mi SE 4.6 mph - N/A   Clear
9:53 PM 73.0 °F - 60.1 °F 64% 30.01 in 10.0 mi ESE 5.8 mph - N/A   Clear
10:53 PM 73.0 °F - 59.0 °F 61% 30.01 in 10.0 mi ESE 8.1 mph - N/A   Clear
11:53 PM 73.0 °F - 60.1 °F 64% 30.01 in 10.0 mi ESE 8.1 mph - N/A   Clear